TOURFACTS.DK  
Stats and Facts from Tour de France.

Tour de France 2017 starts in 5 days
  Riders   Stages   Teams   Summits   Yearly  


 
Search by year

 After:  2016 - Stage 21:
  14626 starters.
  5086 different riders.
  634 teams.
  2211 stages.
  454 restdays.
  436049.60 km.
  5622 abandonnees.


Top 3
Christopher Froome89:04:48
Romain Bardet89:08:53
Nairo Quintana89:09:09
Rafal Majka209 pt.
Thomas De Gendt130 pt.
Jarlinson Pantano ..121 pt.
Peter Sagan470 pt.
Marcel Kittel228 pt.
Michael Matthews199 pt.
Adam Yates89:09:30
Louis Meintjes89:11:46
Emanuel Buchmann89:52:28
Facts from Tour de France 2014
  |   Stages.  |   Stage winners.  |   Days in yellow  |   Average speed.  |   Route.  |   Teams.  |   All riders.  |   Rookies.  |   Withdrawls.  |  

  |   GC.  |   Polka  |   Green  |   White  |   Summits. (In tour)  |   Summits. (Points)  |   Miscellaneous.  |  

Stage 7 on 11 - 07 - 2014
         Owning:    Vincenzo Nibali      Cyril Lemoine      Peter Sagan      Peter Sagan  

Pick a stage:  1 2 3 4 5 6 7 8 9 10 11 12 13 14 15 16 17 18 19 20 21
  ÉpernayNancy | Dist: 234.50 km.
Cat: 4Côte de MaronENGSimon Yates1 points 
Cat: 4Côte de BoufflersBELGreg Van Avermaet1 points 

Average speed for all riders in stage:  43,440 km./hr.
    Place:Name:Team:Time:Km/h:
ITAMatteo TrentinBELOmega Pharma – Quick Step05:18:39  +  00:00:00=44,155 
SVKPeter SaganITACannondale Pro Cycling05:18:39  +  00:00:00=44,155 
FRATony GallopinBELLotto-Belisol Team05:18:39  +  00:00:00=44,155 
4 NLDTom DumoulinNLDTeam Giant - Shimano05:18:39  +  00:00:00=44,155 
5 AUSSimon GerransAUSOrica - GreenEDGE05:18:39  +  00:00:00=44,155 
6 ITADaniel OssUSABMC Racing Team05:18:39  +  00:00:00=44,155 
7 FRACyril GautierFRATeam Europcar05:18:39  +  00:00:00=44,155 
8 FRASylvain ChavanelCHEIAM Cycling05:18:39  +  00:00:00=44,155 
9 BELSep VanmarckeNLDBelkin Pro Cycling05:18:39  +  00:00:00=44,155 
10 BELGreg Van AvermaetUSABMC Racing Team05:18:39  +  00:00:00=44,155 
11 FRAKévin RezaFRATeam Europcar05:18:39  +  00:00:00=44,155 
12 ESPAlejandro ValverdeESPMovistar Team05:18:39  +  00:00:00=44,155 
13 FRAArthur VichotFRAFDJ.fr05:18:39  +  00:00:00=44,155 
14 PRTRui CostaITALampre-Merida05:18:39  +  00:00:00=44,155 
15 FRARomain BardetFRAAg2r La Mondiale05:18:39  +  00:00:00=44,155 
16 ITAVincenzo NibaliKAZAstana Pro Team05:18:39  +  00:00:00=44,155 
17 FRAJean-Christophe PeraudFRAAg2r La Mondiale05:18:39  +  00:00:00=44,155 
18 NLDBauke MollemaNLDBelkin Pro Cycling05:18:39  +  00:00:00=44,155 
19 AUSRichie PorteGBRSky Procycling05:18:39  +  00:00:00=44,155 
20 FRAThibaut PinotFRAFDJ.fr05:18:39  +  00:00:00=44,155 
21 ESPAlberto ContadorRUSTinkoff Saxo05:18:39  +  00:00:00=44,155 
22 POLMichal KwiatkowskiBELOmega Pharma – Quick Step05:18:39  +  00:00:00=44,155 
23 LUXFränk SchleckUSATrek Factory Racing05:18:39  +  00:00:00=44,155 
24 ESPMikel NieveGBRSky Procycling05:18:39  +  00:00:00=44,155 
25 CHEJakob FuglsangKAZAstana Pro Team05:18:39  +  00:00:00=44,155 
26 JPNChristopher HornerITALampre-Merida05:18:39  +  00:00:00=44,155 
27 FRAPierre RollandFRATeam Europcar05:18:39  +  00:00:00=44,155 
28 ESPHaimar ZubeldiaUSATrek Factory Racing05:18:39  +  00:00:00=44,155 
29 FRARudy MolardFRACofidis – Solutions Crédits05:18:39  +  00:00:00=44,155 
30 PRTTiago PintoDEUTeam NetApp – Endura05:18:39  +  00:00:00=44,155 
31 NLDLaurens ten DamNLDBelkin Pro Cycling05:18:39  +  00:00:00=44,155 
32 CHEMichael AlbasiniAUSOrica - GreenEDGE05:18:39  +  00:00:00=44,155 
33 FRAArnold JeannessonFRAFDJ.fr05:18:39  +  00:00:00=44,155 
34 ITAMichele ScarponiKAZAstana Pro Team05:18:39  +  00:00:00=44,155 
35 BELJurgen Van Den BroeckBELLotto-Belisol Team05:18:39  +  00:00:00=44,155 
36 FRABrice FeilluFRABretagne - Séché Environnement05:18:39  +  00:00:00=44,155 
37 USAAndrew TalanskyUSAGarmin Sharp05:18:39  +  00:00:00=44,155 
38 CZELeopold KönigDEUTeam NetApp – Endura05:18:39  +  00:00:00=44,155 
39 USRTanel KangertKAZAstana Pro Team05:18:39  +  00:00:00=44,155 
40 CHEMathias FrankCHEIAM Cycling05:18:39  +  00:00:00=44,155 
41 DEUPaul VossDEUTeam NetApp – Endura05:18:53  +  00:00:14=44,123 
42 NORAlexander KristoffRUSTeam Katusha05:18:53  +  00:00:14=44,123 
43 FRASamuel DumoulinFRAAg2r La Mondiale05:18:53  +  00:00:14=44,123 
44 WALGeraint ThomasGBRSky Procycling05:18:53  +  00:00:14=44,123 
45 FRAJulien SimonFRACofidis – Solutions Crédits05:18:53  +  00:00:14=44,123 
46 RUSYury TrofimovRUSTeam Katusha05:18:53  +  00:00:14=44,123 
47 FRAJohn GadretESPMovistar Team05:18:53  +  00:00:14=44,123 
48 FRAThomas VoecklerFRATeam Europcar05:18:53  +  00:00:14=44,123 
49 ESPLuis Angel MateFRACofidis – Solutions Crédits05:18:53  +  00:00:14=44,123 
50 FRANicolas RocheRUSTinkoff Saxo05:19:00  +  00:00:21=44,107 
51 CHEFabian CancellaraUSATrek Factory Racing05:19:42  +  00:01:03=44,010 
52 USATejay Van GarderenUSABMC Racing Team05:19:42  +  00:01:03=44,010 
53 NLDBram TankinkNLDBelkin Pro Cycling05:19:42  +  00:01:03=44,010 
54 AUSHeinrich HausslerCHEIAM Cycling05:19:42  +  00:01:03=44,010 
55 NLDKoen De KortNLDTeam Giant - Shimano05:19:42  +  00:01:03=44,010 
56 DEUTony MartinBELOmega Pharma – Quick Step05:19:42  +  00:01:03=44,010 
57 FRAJérôme PineauCHEIAM Cycling05:19:42  +  00:01:03=44,010 
58 HRVKristijan DurasekITALampre-Merida05:19:42  +  00:01:03=44,010 
59 CHEReto HollensteinCHEIAM Cycling05:19:54  +  00:01:15=43,982 
60 FRAMickaël CherelFRAAg2r La Mondiale05:19:59  +  00:01:20=43,971 
61 FRAJérémy RoyFRAFDJ.fr05:20:05  +  00:01:26=43,957 
62 FRACyril LemoineFRACofidis – Solutions Crédits05:20:05  +  00:01:26=43,957 
63 FRAMatthieu LadagnousFRAFDJ.fr05:20:05  +  00:01:26=43,957 
64 FRAFlorian GuillouFRABretagne - Séché Environnement05:20:05  +  00:01:26=43,957 
65 NLDTom-Jelte SlagterUSAGarmin Sharp05:20:05  +  00:01:26=43,957 
66 ITAGiovanni ViscontiESPMovistar Team05:20:05  +  00:01:26=43,957 
67 AUSMichael RogersRUSTinkoff Saxo05:20:05  +  00:01:26=43,957 
68 POLMichal GolasBELOmega Pharma – Quick Step05:20:05  +  00:01:26=43,957 
69 PRTSergio PaulinhoRUSTinkoff Saxo05:20:05  +  00:01:26=43,957 
70 BELJens KeukeleireAUSOrica - GreenEDGE05:20:05  +  00:01:26=43,957 
71 LUXBen GastauerFRAAg2r La Mondiale05:20:05  +  00:01:26=43,957 
72 ITAMarco MarcatoITACannondale Pro Cycling05:20:05  +  00:01:26=43,957 
73 ESPJoaquim RodriguezRUSTeam Katusha05:20:05  +  00:01:26=43,957 
74 NLDSteven KruijswijkNLDBelkin Pro Cycling05:20:05  +  00:01:26=43,957 
75 FRABryan CoquardFRATeam Europcar05:20:05  +  00:01:26=43,957 
76 ESPBeñat IntxaustiESPMovistar Team05:20:33  +  00:01:54=43,893 
77 DEUJens VoigtUSATrek Factory Racing05:21:21  +  00:02:42=43,784 
78 ITAFabio SabatiniITACannondale Pro Cycling05:21:21  +  00:02:42=43,784 
79 ESPMarkel IrizarUSATrek Factory Racing05:21:21  +  00:02:42=43,784 
80 NLDRoy CurversNLDTeam Giant - Shimano05:21:21  +  00:02:42=43,784 
81 AUSAdam HansenBELLotto-Belisol Team05:21:21  +  00:02:42=43,784 
82 ESPRafael Valls FerriITALampre-Merida05:21:21  +  00:02:42=43,784 
83 CZEJan BártaDEUTeam NetApp – Endura05:21:21  +  00:02:42=43,784 
84 COLJosé SerpaITALampre-Merida05:21:21  +  00:02:42=43,784 
85 NLDNiki TerpstraBELOmega Pharma – Quick Step05:21:21  +  00:02:42=43,784 
86 NLDLars BoomNLDBelkin Pro Cycling05:21:21  +  00:02:42=43,784 
87 ENGSimon YatesAUSOrica - GreenEDGE05:21:21  +  00:02:42=43,784 
88 NLDLieuwe WestraKAZAstana Pro Team05:21:21  +  00:02:42=43,784 
89 ITAAlessandro De MarchiITACannondale Pro Cycling05:21:33  +  00:02:54=43,757 
90 FRASébastien MinardFRAAg2r La Mondiale05:21:33  +  00:02:54=43,757 
91 FRAFlorian VachonFRABretagne - Séché Environnement05:21:33  +  00:02:54=43,757 
92 BELJürgen RoelandtsBELLotto-Belisol Team05:21:45  +  00:03:06=43,730 
93 CHEMarcel WyssCHEIAM Cycling05:21:51  +  00:03:12=43,716 
94 ITALuca PaoliniRUSTeam Katusha05:22:15  +  00:03:36=43,662 
95 JPNYukiya ArashiroFRATeam Europcar05:22:18  +  00:03:39=43,655 
96 RUSAlexander PorsevRUSTeam Katusha05:22:22  +  00:03:43=43,646 
97 USADanny PateGBRSky Procycling05:22:25  +  00:03:46=43,639 
98 CHEGregory RastUSATrek Factory Racing05:22:25  +  00:03:46=43,639 
99 ESPJesus HerradaESPMovistar Team05:22:25  +  00:03:46=43,639 
100 FRAJean-Marc BideauFRABretagne - Séché Environnement05:22:25  +  00:03:46=43,639 
101 NLDSebastian LangeveldUSAGarmin Sharp05:22:27  +  00:03:48=43,635 
102 POLMaciej BodnarITACannondale Pro Cycling05:22:27  +  00:03:48=43,635 
103 USRGatis SmukulisRUSTeam Katusha05:22:42  +  00:04:03=43,601 
104 BELJan BakelantsBELOmega Pharma – Quick Step05:23:03  +  00:04:24=43,554 
105 FRAArnaud GérardFRABretagne - Séché Environnement05:23:55  +  00:05:16=43,437 
106 FRABlel KadriFRAAg2r La Mondiale05:24:04  +  00:05:25=43,417 
107 ITAMatteo MontagutiFRAAg2r La Mondiale05:24:04  +  00:05:25=43,417 
108 SVNSimon SpilakRUSTeam Katusha05:24:04  +  00:05:25=43,417 
109 USRRein TaaramäeFRACofidis – Solutions Crédits05:24:04  +  00:05:25=43,417 
110 DEUAndreas SchillingerDEUTeam NetApp – Endura05:24:04  +  00:05:25=43,417 
111 ESPDavid LopezGBRSky Procycling05:24:35  +  00:05:56=43,348 
112 CHEMichael SchärUSABMC Racing Team05:24:47  +  00:06:08=43,321 
113 SVKPeter VelitsUSABMC Racing Team05:24:47  +  00:06:08=43,321 
114 USAPeter StetinaUSABMC Racing Team05:24:47  +  00:06:08=43,321 
115 FRAAmaël MoinardUSABMC Racing Team05:24:47  +  00:06:08=43,321 
116 ITAAlessandro PetacchiBELOmega Pharma – Quick Step05:24:47  +  00:06:08=43,321 
117 ESPJosé Joaquin RojasESPMovistar Team05:24:59  +  00:06:20=43,295 
118 BLRVasil KiryienkaGBRSky Procycling05:24:59  +  00:06:20=43,295 
119 CANChristian MeierAUSOrica - GreenEDGE05:24:59  +  00:06:20=43,295 
120 FRAYohann GèneFRATeam Europcar05:24:59  +  00:06:20=43,295 
121 FRAArnaud DémareFRAFDJ.fr05:26:07  +  00:07:28=43,144 
122 AUSLuke DurbridgeAUSOrica - GreenEDGE05:26:12  +  00:07:33=43,133 
123 DNKLars BakBELLotto-Belisol Team05:26:12  +  00:07:33=43,133 
124 CHESébastien ReichenbachCHEIAM Cycling05:26:12  +  00:07:33=43,133 
125 FRARomain FeilluFRABretagne - Séché Environnement05:26:12  +  00:07:33=43,133 
126 FRAMickael DelageFRAFDJ.fr05:27:27  +  00:08:48=42,968 
127 POLBartosz HuzarskiDEUTeam NetApp – Endura05:27:27  +  00:08:48=42,968 
128 CHEMartin ElmigerCHEIAM Cycling05:27:27  +  00:08:48=42,968 
129 FRACédric PineauFRAFDJ.fr05:27:27  +  00:08:48=42,968 
130 USAAlex HowesUSAGarmin Sharp05:27:27  +  00:08:48=42,968 
131 FRAArmindo FonsecaFRABretagne - Séché Environnement05:27:27  +  00:08:48=42,968 
132 FRABenoît JarrierFRABretagne - Séché Environnement05:27:27  +  00:08:48=42,968 
133 BELMaarten WynantsNLDBelkin Pro Cycling05:27:27  +  00:08:48=42,968 
134 DEUAndré GreipelBELLotto-Belisol Team05:27:27  +  00:08:48=42,968 
135 RUSVladimir IsaichevRUSTeam Katusha05:27:27  +  00:08:48=42,968 
136 USABenjamin KingUSAGarmin Sharp05:27:27  +  00:08:48=42,968 
137 AUSSimon ClarkeAUSOrica - GreenEDGE05:27:27  +  00:08:48=42,968 
138 NZLJack BauerUSAGarmin Sharp05:27:27  +  00:08:48=42,968 
139 FRAChristophe RiblonFRAAg2r La Mondiale05:27:27  +  00:08:48=42,968 
140 DEURoger KlugeCHEIAM Cycling05:29:43  +  00:11:04=42,673 
141 UKRAndriy GrivkoKAZAstana Pro Team05:30:55  +  00:12:16=42,518 
142 DEUMarcus BurghardtUSABMC Racing Team05:30:55  +  00:12:16=42,518 
143 FRAAlexandre PichotFRATeam Europcar05:30:55  +  00:12:16=42,518 
144 KAZMaxim IglinskiyKAZAstana Pro Team05:30:55  +  00:12:16=42,518 
145 BELJohan VansummerenUSAGarmin Sharp05:30:55  +  00:12:16=42,518 
146 DEUMarcel SiebergBELLotto-Belisol Team05:30:55  +  00:12:16=42,518 
147 COLJanier AcevedoUSAGarmin Sharp05:30:55  +  00:12:16=42,518 
148 FRAPerrig QuemeneurFRATeam Europcar05:30:55  +  00:12:16=42,518 
149 ESPDavid de la CruzDEUTeam NetApp – Endura05:30:55  +  00:12:16=42,518 
150 KAZDmitriy GruzdevKAZAstana Pro Team05:30:55  +  00:12:16=42,518 
151 FRANicolas EdetFRACofidis – Solutions Crédits05:30:55  +  00:12:16=42,518 
152 CANSvein TuftAUSOrica - GreenEDGE05:30:55  +  00:12:16=42,518 
153 ITAAlessandro VanottiKAZAstana Pro Team05:30:55  +  00:12:16=42,518 
154 AUSZakkari DempsterDEUTeam NetApp – Endura05:30:55  +  00:12:16=42,518 
155 USRRamunas NavardauskasUSAGarmin Sharp05:30:55  +  00:12:16=42,518 
156 ITADaniele BennatiRUSTinkoff Saxo05:30:55  +  00:12:16=42,518 
157 ESPImanol ErvitiESPMovistar Team05:30:55  +  00:12:16=42,518 
158 ITAMatteo TosattoRUSTinkoff Saxo05:30:55  +  00:12:16=42,518 
159 AUSMathew HaymanAUSOrica - GreenEDGE05:30:55  +  00:12:16=42,518 
160 AUSMark RenshawBELOmega Pharma – Quick Step05:30:55  +  00:12:16=42,518 
161 ESPJon Izaguirre InsaustiESPMovistar Team05:30:55  +  00:12:16=42,518 
162 ESPRubén PlazaESPMovistar Team05:30:55  +  00:12:16=42,518 
163 NLDTom LeezerNLDBelkin Pro Cycling05:30:55  +  00:12:16=42,518 
164 USAMatthew BuscheUSATrek Factory Racing05:30:55  +  00:12:16=42,518 
165 DNKMichael MørkøvRUSTinkoff Saxo05:30:55  +  00:12:16=42,518 
166 DEUMarcel KittelNLDTeam Giant - Shimano05:30:55  +  00:12:16=42,518 
167 DEUJohn DegenkolbNLDTeam Giant - Shimano05:30:55  +  00:12:16=42,518 
168 AUTBernhard EiselGBRSky Procycling05:30:55  +  00:12:16=42,518 
169 POLRafal MajkaRUSTinkoff Saxo05:30:55  +  00:12:16=42,518 
170 NLDAlbert TimmerNLDTeam Giant - Shimano05:30:55  +  00:12:16=42,518 
171 PRTNelson OliveiraITALampre-Merida05:30:55  +  00:12:16=42,518 
172 ESPDaniel NavarroFRACofidis – Solutions Crédits05:30:55  +  00:12:16=42,518 
173 ESPEgoitz GarciaFRACofidis – Solutions Crédits05:30:55  +  00:12:16=42,518 
174 NLDTom VeelersNLDTeam Giant - Shimano05:30:55  +  00:12:16=42,518 
175 BELDries DevenynsNLDTeam Giant - Shimano05:30:55  +  00:12:16=42,518 
176 CHNCheng JiNLDTeam Giant - Shimano05:30:55  +  00:12:16=42,518 
177 ITADavide CimolaiITALampre-Merida05:30:55  +  00:12:16=42,518 
178 FRAWilliam BonnetFRAFDJ.fr05:30:55  +  00:12:16=42,518 
179 FRAJean-Marc MarinoITACannondale Pro Cycling05:30:55  +  00:12:16=42,518 
180 FRAAdrien PetitFRACofidis – Solutions Crédits05:30:55  +  00:12:16=42,518 
181 FRAAnthony DelaplaceFRABretagne - Séché Environnement05:32:07  +  00:13:28=42,365 
182 PRTJosé João PimentaDEUTeam NetApp – Endura05:32:07  +  00:13:28=42,365 
183 BELBart De ClercqBELLotto-Belisol Team05:32:07  +  00:13:28=42,365 
184 USAEdward KingITACannondale Pro Cycling05:35:54  +  00:17:15=41,887 
185 SVNKristjan KorenITACannondale Pro Cycling05:35:54  +  00:17:15=41,887 
186 ITAElia VivianiITACannondale Pro Cycling05:35:54  +  00:17:15=41,887 

Withdrawls: 3
 
Rider
Team
Reason
63  NLDStef ClementNLDBelkin Pro CyclingDid not finish
142  COLDarwin AtapumaUSABMC Racing TeamDid not finish
167  NLDDanny van PoppelUSATrek Factory RacingDid not finish

Todays birthdays.

1899  Ardito Bresciani
1908  Renato Scorticati
1927  Marcel Huber
1941  Roger Cooreman
1942  Luis Santamarina
1952  Ferdi Van den Haute
1956  Graziano Salvietti
1961  Massimo Ghirotto
1963  Thierry Marie
1968  Dominik Krieger
1979  Sébastien Joly
1981  Yohann Gène
1982  William Bonnet
1986  Marcel Wyss
1987  Rafael Valls Ferri
1988  Egor Silin